Theta_e
334 328 324 327 330 320 322 321 328 329 325 327 328 320 316 318 318 322 329 334 336 333 333 334 329 330 333 333 333 334 334 334 335 334 334 334 334 334 333 331 332 332 332
334 326 327 325 315 319 325 328 333 329 332 325 321 315 313 313 314 318 317 324 329 324 330 329 330 329 327 326 326 325 330 330 330 331 331 331 332 331 331 331 331 332 332
334 326 322 318 319 318 321 331 332 332 331 321 314 313 311 311 318 320 317 313 314 316 315 314 320 316 317 318 317 319 321 325 328 327 329 330 329 328 330 329 328 329 329
334 322 318 314 314 319 322 326 331 333 330 316 312 311 310 311 323 330 325 315 312 312 312 311 311 312 313 314 316 317 326 328 328 327 327 327 332 328 324 325 326 326 322
330 319 314 312 313 315 318 331 331 332 328 316 310 309 310 310 321 330 326 318 311 313 312 311 311 312 313 314 315 323 326 326 327 326 326 326 325 325 325 325 326 325 324
333 317 315 313 312 313 317 329 330 331 321 315 311 309 309 310 312 324 327 321 313 312 314 316 316 313 314 314 318 321 324 325 325 325 323 323 323 325 323 324 324 322 323
331 318 316 315 315 314 314 325 330 323 319 316 314 312 310 309 309 316 327 321 319 316 327 325 323 322 313 316 317 319 324 324 324 323 322 322 322 323 322 322 322 322 321
326 318 318 318 318 317 316 316 326 319 319 317 316 314 313 311 310 311 326 325 325 322 318 314 317 314 312 314 316 315 320 323 323 322 321 320 317 320 322 320 320 320 320
331 320 319 319 320 319 319 317 317 320 319 319 317 316 315 314 312 311 323 328 325 324 316 313 314 311 312 313 315 315 317 323 322 321 320 316 317 319 316 315 318 317 316
333 327 321 320 320 320 320 320 319 319 320 321 320 319 318 316 313 312 313 324 326 325 318 316 315 313 313 313 314 316 321 322 322 321 320 315 313 312 309 309 312 310 310
335 334 331 324 322 321 321 321 321 321 321 322 322 321 321 319 317 316 312 311 312 312 311 312 312 312 313 313 314 316 320 320 321 320 319 315 314 313 309 306 304 304 304
335 334 334 331 329 326 323 322 323 323 323 323 323 323 323 322 321 321 315 313 312 312 313 312 312 312 315 318 318 318 321 319 321 319 317 315 315 314 312 309 305 304 304
335 335 335 335 332 329 327 324 324 324 324 324 324 324 324 324 323 323 321 317 316 316 316 314 313 314 315 316 318 318 320 319 320 320 318 317 317 316 315 313 311 307 304
335 334 332 331 335 331 330 328 327 326 325 325 325 325 325 325 325 325 325 324 321 319 319 317 316 317 317 318 319 319 318 318 320 319 317 317 317 317 317 317 317 315 311
335 335 331 330 330 333 333 330 331 329 328 327 327 327 326 326 326 326 325 325 324 321 320 320 319 319 319 320 320 319 319 318 318 318 318 318 318 318 318 317 317 317 317
335 335 334 330 329 330 331 331 331 333 333 329 328 328 328 328 327 327 327 326 326 325 322 321 321 321 322 322 321 321 320 319 319 319 319 319 319 319 318 318 318 318 317
333 334 335 334 330 328 328 330 332 331 330 332 329 329 329 329 328 328 328 327 326 326 326 325 324 323 322 321 321 321 321 321 320 320 319 319 319 319 319 319 318 318 317
331 333 334 334 332 326 329 331 332 330 331 331 331 330 327 328 329 328 327 325 324 324 324 324 324 323 323 323 322 322 322 321 322 322 321 321 321 321 320 320 320 320 319
331 331 333 334 333 328 324 327 328 328 328 328 329 330 330 328 327 327 326 327 326 324 325 325 325 324 324 324 324 324 323 323 321 322 322 322 322 322 322 321 321 321 321
331 332 332 333 334 329 325 325 327 328 328 328 328 329 330 331 330 329 328 327 326 325 325 324 324 324 324 324 324 324 323 323 324 323 323 323 323 323 323 322 321 321 321
329 331 332 333 334 332 328 327 328 328 328 329 332 332 335 334 329 329 330 328 327 327 325 325 325 325 326 326 326 326 326 326 323 325 325 322 322 323 323 323 323 322 321
313 319 328 330 332 333 332 330 327 330 331 332 334 333 332 331 329 328 329 328 328 327 326 326 326 327 325 325 325 325 323 322 323 323 323 324 324 324 322 323 322 322 322
311 311 314 325 330 332 333 332 334 334 333 332 333 331 331 331 327 327 326 329 327 327 326 327 327 326 326 325 325 324 322 322 323 322 322 322 322 322 322 322 321 321 321
311 310 310 312 323 329 331 332 329 333 330 329 327 329 327 327 326 325 326 325 326 327 327 325 324 324 326 325 326 325 323 323 322 319 320 321 322 320 320 319 320 319 319
312 312 311 310 312 324 329 330 331 330 328 326 325 325 324 325 325 325 324 324 323 323 324 323 324 325 323 325 321 322 323 321 320 320 318 317 318 318 317 318 318 317 316
312 312 311 309 310 313 322 327 327 327 325 325 323 323 323 323 323 322 322 322 322 322 321 322 321 321 321 319 319 318 319 318 318 318 317 317 315 315 315 315 313 314 314
Wind_Speed
10 15 13 10 10 6 8 9 8 9 10 9 9 12 11 10 8 6 6 7 7 6 8 9 10 10 11 12 13 15 16 16 16 15 15 16 16 16 13 14 15 15 14
13 14 14 10 11 9 10 11 12 11 9 11 12 12 11 10 9 11 9 9 7 4 14 13 12 10 9 8 9 10 9 10 10 10 10 11 12 13 11 12 13 12 14
12 13 12 12 10 11 13 13 11 9 9 10 12 13 12 12 13 14 16 14 13 13 13 12 12 10 12 12 12 11 13 16 18 14 13 14 14 8 7 8 5 5 5
12 11 12 11 12 14 14 14 11 7 8 11 15 12 12 13 17 15 13 13 14 14 13 13 12 13 15 15 15 16 17 17 15 10 9 11 15 11 10 9 7 7 5
15 13 12 12 13 14 15 13 11 7 9 12 12 10 12 14 16 15 11 13 14 13 14 14 13 13 13 14 16 19 18 15 9 8 10 10 7 5 7 9 8 8 9
14 14 14 14 13 14 17 14 10 8 10 11 11 11 11 12 13 13 11 13 13 14 14 14 12 12 12 14 17 17 18 15 8 11 7 4 7 8 6 8 8 6 4
15 14 14 14 14 15 14 14 10 8 10 10 11 11 11 11 12 12 11 10 13 14 15 12 13 12 14 14 15 15 16 15 7 7 5 6 4 4 4 3 4 2 4
15 14 15 14 13 13 12 12 9 8 9 10 10 10 10 10 10 10 12 10 11 10 11 10 11 12 12 12 11 11 11 12 2 4 5 4 5 5 2 2 2 0 1
11 14 14 13 13 12 11 11 9 8 7 8 9 9 9 9 10 10 11 9 6 4 5 8 10 10 10 9 8 9 11 9 5 4 4 7 7 3 2 1 2 1 3
12 12 12 12 11 11 10 10 8 7 7 7 8 8 8 8 8 7 7 8 6 6 5 5 7 7 7 7 7 9 11 8 6 5 8 8 9 6 5 4 0 2 1
14 16 8 11 11 10 10 9 7 6 5 5 6 6 5 6 5 5 5 2 3 4 3 3 4 4 4 6 6 6 6 5 3 7 8 7 8 8 7 6 5 5 5
18 17 17 10 9 7 8 7 6 5 4 4 4 3 4 3 3 5 3 2 3 4 4 4 2 3 4 4 6 4 4 4 3 8 8 9 9 8 8 8 8 7 7
18 21 19 17 13 12 10 9 8 7 5 3 3 2 1 1 1 2 2 1 2 3 2 2 2 1 2 1 4 3 1 2 4 6 8 9 10 10 10 10 9 8 8
19 17 21 19 16 13 13 10 9 7 7 5 5 4 3 2 2 3 3 3 3 3 2 2 1 3 3 3 4 4 4 4 3 7 8 7 9 9 10 10 9 9 8
22 21 18 21 20 17 13 12 10 9 9 8 7 6 5 5 4 4 4 5 4 4 4 4 4 3 3 4 5 6 5 4 5 6 9 8 10 11 11 11 11 11 10
20 20 19 18 21 21 19 17 14 13 9 10 10 8 7 8 6 6 7 6 6 6 6 6 6 6 6 6 8 9 10 11 10 11 11 14 15 14 13 13 14 13 13
21 20 19 18 17 21 20 19 18 17 15 12 11 11 9 9 10 10 9 8 8 8 8 8 10 11 12 14 15 16 16 17 17 18 19 19 21 22 21 20 19 19 18
19 21 20 20 19 16 19 17 17 16 15 16 13 11 9 10 10 11 10 11 12 12 12 12 14 13 15 17 19 19 22 22 22 23 24 24 25 27 27 26 26 25 25
18 19 20 21 22 20 16 16 16 15 14 14 13 13 11 10 9 11 10 12 14 15 16 16 16 18 20 20 23 24 26 28 27 27 27 27 28 29 30 31 31 30 30
17 17 18 21 22 20 18 18 18 17 16 15 15 14 13 13 13 13 13 12 12 12 13 15 17 19 22 23 26 27 30 31 32 34 33 33 31 33 33 35 35 34 34
24 23 22 21 23 22 21 22 22 21 20 18 18 18 17 17 16 17 16 16 17 15 17 19 22 23 25 26 30 33 34 33 35 36 36 35 33 35 33 32 34 34 32
22 25 26 25 24 24 23 21 21 21 21 19 19 19 19 18 15 17 20 20 19 21 21 22 24 27 26 27 33 35 33 35 38 31 29 37 35 32 34 34 34 37 34
20 23 26 27 25 22 24 21 19 20 19 17 16 16 16 15 15 16 19 21 23 22 23 23 23 25 27 28 29 29 24 22 34 38 32 31 35 35 33 37 42 40 39
14 16 21 25 27 24 22 21 18 18 17 15 13 11 11 11 12 13 13 17 18 20 24 23 21 23 25 28 29 33 31 37 34 33 34 39 39 34 41 43 41 39 40
9 10 12 18 23 27 24 17 12 12 13 12 11 8 7 7 9 10 11 13 15 17 19 19 20 22 23 27 30 32 32 33 34 36 42 38 43 46 48 42 42 42 45
8 7 8 11 16 19 24 22 15 14 8 9 9 7 6 6 7 10 11 13 14 15 16 20 21 23 24 27 28 29 31 33 36 38 42 47 49 45 43 48 46 45 43
Wind_Direction
158 152 155 138 136 97 110 104 89 71 64 74 79 85 87 90 93 110 135 136 115 113 88 84 87 91 102 96 91 86 83 79 79 76 77 81 79 75 69 71 80 81 82
162 155 140 137 118 138 116 112 100 80 73 66 71 83 87 89 84 93 104 158 169 108 88 89 90 107 111 99 89 90 95 84 76 73 73 71 72 78 78 71 84 92 96
167 152 145 132 130 127 121 115 108 97 81 65 73 81 83 82 87 79 76 81 94 92 91 90 92 88 84 83 84 83 80 81 72 62 77 76 69 68 89 89 79 84 79
153 152 138 134 131 129 124 120 113 105 65 63 76 79 84 82 85 82 72 73 84 86 85 83 83 83 89 91 91 90 85 79 78 82 76 79 78 73 77 93 98 79 59
145 143 130 130 125 123 122 118 119 107 71 65 73 81 83 82 91 96 73 77 79 82 84 84 88 89 92 90 93 95 93 90 88 76 76 70 66 63 96 83 79 71 71
135 131 129 122 124 124 133 122 124 103 83 81 79 84 86 88 98 105 91 84 76 86 83 81 83 87 88 92 96 96 89 81 78 76 65 70 67 66 73 90 73 50 44
145 139 129 125 129 130 133 132 124 109 92 82 78 81 85 86 88 95 94 86 79 87 86 88 87 86 84 92 100 100 102 85 54 80 73 75 80 76 68 77 68 53 43
148 144 135 131 130 126 127 130 128 113 101 87 81 80 82 83 87 89 82 88 84 83 84 89 86 91 83 94 100 91 95 89 70 47 55 49 30 11 86 59 87 311 100
166 144 140 137 136 133 132 132 137 127 118 102 92 87 84 87 91 100 103 100 93 97 68 79 84 84 84 84 82 76 98 90 28 19 333 21 21 52 28 198 134 125 116
171 147 152 148 148 144 140 138 144 139 123 110 93 83 78 80 91 99 114 123 108 100 118 81 86 84 73 68 66 76 99 93 27 354 343 5 29 18 350 321 310 305 124
180 154 173 163 162 157 153 153 157 153 138 115 98 85 81 76 78 86 85 110 66 58 80 113 98 83 64 49 44 62 83 75 123 290 328 350 12 13 14 6 355 332 338
181 170 170 180 173 179 172 173 173 173 166 149 128 108 69 56 51 54 45 42 34 18 31 75 109 87 40 45 40 56 38 22 346 303 357 354 358 359 5 5 0 358 349
198 191 181 175 187 193 206 195 198 197 196 193 174 189 137 62 16 6 30 16 33 27 48 53 68 31 9 25 340 8 278 336 305 313 347 357 359 359 357 3 360 356 349
196 214 204 190 183 206 211 205 215 211 216 218 228 229 233 254 268 312 335 339 359 353 18 354 355 352 356 351 350 348 350 349 326 315 340 346 344 345 346 345 354 349 341
200 219 215 203 203 201 211 212 214 230 226 230 236 240 249 260 270 290 298 305 309 319 329 336 333 336 337 352 349 340 332 326 312 305 318 324 324 324 324 325 324 328 324
208 212 233 220 216 215 217 224 212 208 233 231 244 251 251 264 274 278 281 289 300 311 310 314 312 308 306 304 311 308 300 298 297 298 298 307 312 312 312 312 310 306 304
211 215 223 241 231 224 227 228 225 229 229 235 245 253 256 258 270 276 281 291 292 297 301 306 310 311 308 301 299 298 297 297 294 295 295 294 299 300 302 302 300 299 298
212 213 213 229 243 235 227 233 236 235 228 238 242 249 262 255 260 271 274 272 275 283 284 288 292 291 294 298 294 296 295 294 291 293 290 289 290 292 293 295 295 294 294
215 213 213 221 235 242 230 226 230 235 235 234 238 241 250 264 259 268 272 269 263 265 271 278 283 286 289 290 293 293 295 296 295 293 290 293 294 292 290 290 290 291 289
214 219 222 223 237 239 236 230 230 234 240 241 245 245 245 253 266 263 267 266 267 274 286 288 290 287 289 293 290 294 293 296 296 296 293 295 299 299 296 292 288 289 290
210 210 217 222 232 243 241 227 231 237 241 246 252 260 262 262 265 267 268 276 274 278 282 283 284 288 290 296 294 298 295 293 300 289 292 296 293 300 293 292 291 291 289
221 219 214 219 225 234 237 236 234 240 246 251 255 260 263 266 264 264 272 273 277 278 282 288 289 292 293 291 293 299 300 306 301 307 300 300 299 301 295 297 294 298 289
229 224 217 215 215 225 236 237 233 237 242 248 253 262 264 265 260 254 261 270 276 284 286 290 292 296 300 293 298 291 293 294 300 303 297 296 296 295 289 292 294 293 292
237 232 228 220 212 207 227 240 246 231 235 247 253 265 264 263 267 264 263 264 268 278 286 290 291 292 296 298 297 296 300 297 298 299 300 298 300 288 295 298 298 296 294
217 214 215 214 209 205 205 229 220 220 226 225 239 255 268 281 274 277 272 271 271 274 277 285 290 293 291 294 296 302 304 305 300 299 300 301 300 299 297 296 295 297 297
172 165 161 177 195 202 204 206 212 240 221 218 234 244 250 267 285 278 280 274 280 289 288 290 291 291 293 293 297 295 298 297 301 302 299 302 301 301 299 300 299 300 301